SJV529 WADD-WAAA

Flight info

Callsign SJV529
Flight time 1h 10m
Altitude 33000
Route PEDET W41 LIPOT
Aircraft A320/M-SDE3FGHIRWY/LB1

Departure

Time 2026-04-23 05:20
Airport Denpasar I Gusti Ngurah Rai International Airport (WADD)

Arrival

Time 2026-04-23 06:30
Airport Sultan Hasanuddin International Airport (WAAA)
Time Latitude Longitude Altitude Speed Heading
2026-04-23 04:50 -8.74533 115.17066 33 ft 0 kts 358°
2026-04-23 05:10 -8.74537 115.17066 33 ft 2 kts 358°
2026-04-23 05:11 -8.74554 115.17067 40 ft 2 kts 358°
2026-04-23 05:11 -8.74570 115.17068 27 ft 2 kts 358°
2026-04-23 05:11 -8.74587 115.17068 31 ft 2 kts 358°
2026-04-23 05:11 -8.74603 115.17069 31 ft 2 kts 358°
2026-04-23 05:12 -8.74620 115.17070 29 ft 2 kts 358°
2026-04-23 05:12 -8.74637 115.17070 30 ft 2 kts 341°
2026-04-23 05:12 -8.74651 115.17079 31 ft 2 kts 313°
2026-04-23 05:12 -8.74660 115.17092 30 ft 2 kts 290°
2026-04-23 05:13 -8.74663 115.17103 30 ft 1 kts 273°
2026-04-23 05:13 -8.74663 115.17104 30 ft 0 kts 271°
2026-04-23 05:14 -8.74663 115.17097 31 ft 0 kts 270°
2026-04-23 05:14 -8.74663 115.17095 31 ft 2 kts 270°
2026-04-23 05:15 -8.74666 115.17041 31 ft 13 kts 267°
2026-04-23 05:15 -8.74671 115.16912 32 ft 23 kts 268°
2026-04-23 05:15 -8.74679 115.16721 32 ft 31 kts 268°
2026-04-23 05:15 -8.74687 115.16520 32 ft 16 kts 268°
2026-04-23 05:16 -8.74692 115.16392 32 ft 17 kts 267°
2026-04-23 05:16 -8.74698 115.16259 32 ft 20 kts 268°
2026-04-23 05:16 -8.74705 115.16109 32 ft 23 kts 267°
2026-04-23 05:16 -8.74711 115.15941 32 ft 25 kts 268°
2026-04-23 05:17 -8.74720 115.15756 32 ft 27 kts 267°
2026-04-23 05:17 -8.74727 115.15566 32 ft 26 kts 267°
2026-04-23 05:17 -8.74733 115.15443 32 ft 16 kts 262°
2026-04-23 05:17 -8.74789 115.15390 31 ft 0 kts 194°
2026-04-23 05:18 -8.74791 115.15390 31 ft 1 kts 181°
2026-04-23 05:18 -8.74835 115.15395 29 ft 12 kts 174°
2026-04-23 05:18 -8.74882 115.15400 28 ft 6 kts 161°
2026-04-23 05:19 -8.74896 115.15453 28 ft 12 kts 85°
2026-04-23 05:19 -8.74886 115.15683 28 ft 67 kts 88°
2026-04-23 05:19 -8.74859 115.16388 28 ft 130 kts 88°
2026-04-23 05:19 -8.74815 115.17442 205 ft 163 kts 88°
2026-04-23 05:20 -8.74746 115.18604 802 ft 169 kts 88°
2026-04-23 05:20 -8.74693 115.19793 1591 ft 164 kts 87°
2026-04-23 05:20 -8.74657 115.20970 2226 ft 175 kts 87°
2026-04-23 05:20 -8.74624 115.22203 2492 ft 172 kts 87°
2026-04-23 05:21 -8.74579 115.23439 2519 ft 181 kts 86°
2026-04-23 05:21 -8.74525 115.24760 2607 ft 198 kts 86°
2026-04-23 05:21 -8.74460 115.26265 2896 ft 227 kts 86°
2026-04-23 05:21 -8.74390 115.27933 3427 ft 249 kts 86°
2026-04-23 05:22 -8.74315 115.29743 4091 ft 263 kts 86°
2026-04-23 05:22 -8.74240 115.31606 5011 ft 267 kts 86°
2026-04-23 05:22 -8.74164 115.33492 5949 ft 270 kts 86°
2026-04-23 05:22 -8.74086 115.35402 6823 ft 274 kts 86°
2026-04-23 05:23 -8.74007 115.37334 7711 ft 276 kts 86°
2026-04-23 05:23 -8.73925 115.39297 8352 ft 282 kts 86°
2026-04-23 05:23 -8.73844 115.41257 8660 ft 283 kts 86°
2026-04-23 05:23 -8.73761 115.43248 8841 ft 284 kts 86°
2026-04-23 05:24 -8.73678 115.45246 8936 ft 285 kts 86°
2026-04-23 05:24 -8.73595 115.47256 8943 ft 285 kts 86°
2026-04-23 05:24 -8.73497 115.49255 8943 ft 284 kts 82°
2026-04-23 05:24 -8.72932 115.51148 8944 ft 282 kts 61°
2026-04-23 05:25 -8.71730 115.52707 8946 ft 283 kts 44°
2026-04-23 05:25 -8.70324 115.54099 8944 ft 282 kts 44°
2026-04-23 05:25 -8.68942 115.55476 8948 ft 282 kts 45°
2026-04-23 05:25 -8.67540 115.56878 8946 ft 284 kts 44°
2026-04-23 05:26 -8.66146 115.58273 8943 ft 281 kts 45°
2026-04-23 05:26 -8.64752 115.59672 8947 ft 283 kts 45°
2026-04-23 05:26 -8.63356 115.61074 8947 ft 282 kts 45°
2026-04-23 05:26 -8.61959 115.62477 8948 ft 283 kts 45°
2026-04-23 05:27 -8.60563 115.63878 8943 ft 283 kts 45°
2026-04-23 05:27 -8.59165 115.65282 8942 ft 283 kts 45°
2026-04-23 05:27 -8.57769 115.66683 8942 ft 283 kts 45°
2026-04-23 05:27 -8.56375 115.68082 8944 ft 283 kts 45°
2026-04-23 05:28 -8.55117 115.69615 9030 ft 286 kts 57°
2026-04-23 05:28 -8.54206 115.71411 9601 ft 288 kts 69°
2026-04-23 05:28 -8.53511 115.73312 10417 ft 292 kts 69°
2026-04-23 05:28 -8.52754 115.75309 10698 ft 316 kts 68°
2026-04-23 05:29 -8.51930 115.77455 10951 ft 337 kts 68°
2026-04-23 05:29 -8.51077 115.79682 11604 ft 342 kts 68°
2026-04-23 05:29 -8.50217 115.81935 12349 ft 346 kts 68°
2026-04-23 05:29 -8.49361 115.84187 13063 ft 350 kts 68°
2026-04-23 05:30 -8.48472 115.86524 13772 ft 354 kts 68°
2026-04-23 05:30 -8.47598 115.88824 14379 ft 358 kts 68°
2026-04-23 05:30 -8.46702 115.91182 14738 ft 360 kts 68°
2026-04-23 05:30 -8.45799 115.93558 14883 ft 362 kts 68°
2026-04-23 05:31 -8.44895 115.95936 14937 ft 362 kts 68°
2026-04-23 05:31 -8.43992 115.98310 14941 ft 362 kts 68°
2026-04-23 05:31 -8.43092 116.00680 14941 ft 361 kts 68°
2026-04-23 05:31 -8.42190 116.03057 14945 ft 362 kts 68°
2026-04-23 05:32 -8.41301 116.05399 14945 ft 361 kts 68°
2026-04-23 05:32 -8.40401 116.07768 14947 ft 361 kts 68°
2026-04-23 05:32 -8.39501 116.10138 14953 ft 361 kts 68°
2026-04-23 05:32 -8.38605 116.12496 14952 ft 361 kts 68°
2026-04-23 05:33 -8.37699 116.14880 14950 ft 361 kts 68°
2026-04-23 05:33 -8.36799 116.17248 14956 ft 361 kts 68°
2026-04-23 05:33 -8.35901 116.19613 14956 ft 360 kts 68°
2026-04-23 05:33 -8.35002 116.21981 14958 ft 360 kts 68°
2026-04-23 05:34 -8.34106 116.24340 14957 ft 360 kts 68°
2026-04-23 05:34 -8.33208 116.26704 14956 ft 360 kts 68°
2026-04-23 05:34 -8.32309 116.29071 14958 ft 361 kts 68°
2026-04-23 05:34 -8.31411 116.31434 14963 ft 360 kts 68°
2026-04-23 05:35 -8.30524 116.33765 14937 ft 360 kts 68°
2026-04-23 05:35 -8.29620 116.36141 15190 ft 364 kts 68°
2026-04-23 05:35 -8.28711 116.38529 15895 ft 364 kts 68°
2026-04-23 05:35 -8.27798 116.40926 16514 ft 368 kts 68°
2026-04-23 05:36 -8.26873 116.43356 17096 ft 372 kts 68°
2026-04-23 05:36 -8.25940 116.45806 17690 ft 376 kts 68°
2026-04-23 05:36 -8.24997 116.48281 18232 ft 380 kts 68°
2026-04-23 05:36 -8.24041 116.50788 18738 ft 384 kts 68°
2026-04-23 05:37 -8.23077 116.53316 19223 ft 387 kts 68°
2026-04-23 05:37 -8.21950 116.55782 19700 ft 389 kts 57°
2026-04-23 05:37 -8.20219 116.57892 20161 ft 392 kts 41°
2026-04-23 05:37 -8.17967 116.59452 20612 ft 396 kts 26°
2026-04-23 05:38 -8.15384 116.60326 21068 ft 400 kts 11°
2026-04-23 05:38 -8.12603 116.60579 21522 ft 404 kts
2026-04-23 05:38 -8.09791 116.60738 21990 ft 406 kts
2026-04-23 05:38 -8.06957 116.60896 22449 ft 410 kts
2026-04-23 05:39 -8.04094 116.61060 22903 ft 413 kts
2026-04-23 05:39 -8.01216 116.61229 23343 ft 416 kts
2026-04-23 05:39 -7.98318 116.61400 23731 ft 418 kts
2026-04-23 05:39 -7.95401 116.61574 24099 ft 421 kts
2026-04-23 05:40 -7.92458 116.61750 24503 ft 422 kts
2026-04-23 05:40 -7.89575 116.61921 25391 ft 406 kts
2026-04-23 05:40 -7.87735 116.62030 26132 ft 393 kts
2026-04-23 05:40 -7.84241 116.62237 27637 ft 365 kts
2026-04-23 05:41 -7.81768 116.62384 28678 ft 348 kts
2026-04-23 05:41 -7.79348 116.62530 29073 ft 350 kts
2026-04-23 05:41 -7.76897 116.62678 29313 ft 354 kts
2026-04-23 05:41 -7.74428 116.62827 29610 ft 357 kts
2026-04-23 05:42 -7.72778 116.62925 29809 ft 358 kts
2026-04-23 05:42 -7.70274 116.63075 30091 ft 360 kts
2026-04-23 05:42 -7.67755 116.63225 30357 ft 362 kts
2026-04-23 05:42 -7.65230 116.63376 30637 ft 364 kts
2026-04-23 05:43 -7.62724 116.63525 30871 ft 367 kts
2026-04-23 05:43 -7.60166 116.63677 31135 ft 369 kts
2026-04-23 05:43 -7.57599 116.63830 31422 ft 370 kts
2026-04-23 05:43 -7.55023 116.64027 31657 ft 372 kts 10°
2026-04-23 05:44 -7.52525 116.64688 31865 ft 372 kts 23°
2026-04-23 05:44 -7.50226 116.65901 32087 ft 373 kts 36°
2026-04-23 05:44 -7.48253 116.67591 32324 ft 373 kts 48°
2026-04-23 05:44 -7.46575 116.69588 32562 ft 374 kts 51°
2026-04-23 05:45 -7.44897 116.71606 32776 ft 377 kts 50°
2026-04-23 05:45 -7.41443 116.75730 32837 ft 394 kts 50°
2026-04-23 05:46 -7.37826 116.80042 32840 ft 412 kts 50°
2026-04-23 05:46 -7.34069 116.84521 32839 ft 429 kts 50°
2026-04-23 05:47 -7.30135 116.89211 32838 ft 446 kts 50°
2026-04-23 05:47 -7.26054 116.94074 32838 ft 460 kts 50°
2026-04-23 05:48 -7.21918 116.99000 32838 ft 459 kts 50°
2026-04-23 05:48 -7.17789 117.03917 32836 ft 459 kts 50°
2026-04-23 05:49 -7.13686 117.08802 32839 ft 459 kts 50°
2026-04-23 05:49 -7.09562 117.13711 32831 ft 459 kts 50°
2026-04-23 05:50 -7.05435 117.18620 32835 ft 459 kts 50°
2026-04-23 05:50 -7.01298 117.23540 32837 ft 459 kts 50°
2026-04-23 05:51 -6.96828 117.28135 32835 ft 460 kts 43°
2026-04-23 05:51 -6.92156 117.32474 32837 ft 460 kts 43°
2026-04-23 05:52 -6.87465 117.36851 32838 ft 460 kts 44°
2026-04-23 05:52 -6.82778 117.41237 32839 ft 459 kts 44°
2026-04-23 05:53 -6.78096 117.45621 32838 ft 459 kts 44°
2026-04-23 05:53 -6.73417 117.50000 32838 ft 459 kts 44°
2026-04-23 05:54 -6.68771 117.54347 32834 ft 459 kts 44°
2026-04-23 05:54 -6.64096 117.58720 32832 ft 458 kts 44°
2026-04-23 05:55 -6.59421 117.63092 32832 ft 458 kts 44°
2026-04-23 05:55 -6.54742 117.67467 32830 ft 458 kts 44°
2026-04-23 05:56 -6.50103 117.71803 32826 ft 458 kts 44°
2026-04-23 05:56 -6.45430 117.76169 32823 ft 458 kts 44°
2026-04-23 05:57 -6.40762 117.80530 32822 ft 458 kts 44°
2026-04-23 05:57 -6.36094 117.84890 32823 ft 458 kts 44°
2026-04-23 05:58 -6.31454 117.89221 32823 ft 457 kts 44°
2026-04-23 05:58 -6.26790 117.93576 32827 ft 457 kts 44°
2026-04-23 05:59 -6.22119 117.97934 32824 ft 457 kts 44°
2026-04-23 05:59 -6.17456 118.02285 32826 ft 457 kts 44°
2026-04-23 06:00 -6.12794 118.06632 32828 ft 457 kts 44°
2026-04-23 06:00 -6.08130 118.10982 32825 ft 457 kts 44°
2026-04-23 06:01 -6.03465 118.15331 32827 ft 457 kts 44°
2026-04-23 06:01 -5.98825 118.19655 32818 ft 457 kts 44°
2026-04-23 06:02 -5.94161 118.24001 32826 ft 457 kts 44°
2026-04-23 06:02 -5.89501 118.28342 32825 ft 457 kts 44°
2026-04-23 06:03 -5.84842 118.32681 32821 ft 457 kts 44°
2026-04-23 06:03 -5.80178 118.37023 32817 ft 457 kts 44°
2026-04-23 06:04 -5.75520 118.41360 32822 ft 456 kts 44°
2026-04-23 06:04 -5.70954 118.45608 32819 ft 436 kts 44°
2026-04-23 06:04 -5.68774 118.47634 32818 ft 419 kts 44°
2026-04-23 06:05 -5.66673 118.49589 32819 ft 406 kts 44°
2026-04-23 06:05 -5.62700 118.53727 32822 ft 416 kts 49°
2026-04-23 06:06 -5.58788 118.57951 32664 ft 415 kts 48°
2026-04-23 06:06 -5.56819 118.60072 32417 ft 414 kts 48°
2026-04-23 06:06 -5.54855 118.62188 32176 ft 414 kts 48°
2026-04-23 06:06 -5.52886 118.64309 31935 ft 415 kts 48°
2026-04-23 06:07 -5.50913 118.66435 31696 ft 416 kts 48°
2026-04-23 06:07 -5.48942 118.68557 31461 ft 416 kts 48°
2026-04-23 06:07 -5.46969 118.70683 31223 ft 416 kts 48°
2026-04-23 06:07 -5.44993 118.72811 30993 ft 417 kts 48°
2026-04-23 06:08 -5.43037 118.74916 30764 ft 417 kts 48°
2026-04-23 06:08 -5.41058 118.77048 30419 ft 419 kts 48°
2026-04-23 06:08 -5.39074 118.79186 30016 ft 417 kts 48°
2026-04-23 06:08 -5.37105 118.81310 29517 ft 412 kts 48°
2026-04-23 06:09 -5.35167 118.83398 28724 ft 407 kts 48°
2026-04-23 06:09 -5.33246 118.85468 28077 ft 402 kts 48°
2026-04-23 06:09 -5.31342 118.87520 27520 ft 402 kts 48°
2026-04-23 06:09 -5.29436 118.89574 26954 ft 401 kts 48°
2026-04-23 06:10 -5.27539 118.91618 26405 ft 399 kts 48°
2026-04-23 06:10 -5.25662 118.93641 26040 ft 392 kts 48°
2026-04-23 06:10 -5.23820 118.95625 25420 ft 386 kts 48°
2026-04-23 06:10 -5.21993 118.97593 24724 ft 384 kts 48°
2026-04-23 06:11 -5.20176 118.99551 24245 ft 382 kts 48°
2026-04-23 06:11 -5.18370 119.01496 23800 ft 379 kts 48°
2026-04-23 06:11 -5.16581 119.03423 23337 ft 377 kts 47°
2026-04-23 06:11 -5.14716 119.05254 22718 ft 372 kts 39°
2026-04-23 06:12 -5.12599 119.06686 21961 ft 370 kts 29°
2026-04-23 06:12 -5.10250 119.07688 21422 ft 368 kts 19°
2026-04-23 06:12 -5.05363 119.09289 20488 ft 365 kts 19°
2026-04-23 06:13 -5.02965 119.10086 20024 ft 359 kts 19°
2026-04-23 06:13 -5.00601 119.10873 19353 ft 356 kts 19°
2026-04-23 06:13 -4.98257 119.11653 18704 ft 353 kts 19°
2026-04-23 06:13 -4.95942 119.12422 18162 ft 348 kts 19°
2026-04-23 06:14 -4.93649 119.13183 17623 ft 347 kts 19°
2026-04-23 06:14 -4.91354 119.13945 17091 ft 346 kts 19°
2026-04-23 06:14 -4.89066 119.14704 16565 ft 347 kts 19°
2026-04-23 06:14 -4.86777 119.15464 16176 ft 343 kts 19°
2026-04-23 06:15 -4.84559 119.16200 15827 ft 338 kts 19°
2026-04-23 06:15 -4.82339 119.16936 15404 ft 335 kts 19°
2026-04-23 06:15 -4.80133 119.17668 14976 ft 333 kts 19°
2026-04-23 06:15 -4.77935 119.18397 14543 ft 331 kts 19°
2026-04-23 06:16 -4.75752 119.19122 14129 ft 329 kts 19°
2026-04-23 06:16 -4.73598 119.19836 13573 ft 325 kts 19°
2026-04-23 06:16 -4.71459 119.20547 12889 ft 322 kts 20°
2026-04-23 06:16 -4.69509 119.21596 12187 ft 318 kts 41°
2026-04-23 06:17 -4.68159 119.23306 11665 ft 310 kts 65°
2026-04-23 06:17 -4.67592 119.25399 11480 ft 317 kts 85°
2026-04-23 06:17 -4.67472 119.27598 11253 ft 319 kts 86°
2026-04-23 06:17 -4.67369 119.29795 10991 ft 313 kts 87°
2026-04-23 06:18 -4.67269 119.31973 10596 ft 311 kts 87°
2026-04-23 06:18 -4.67169 119.34131 10251 ft 308 kts 87°
2026-04-23 06:18 -4.67067 119.36284 9948 ft 311 kts 87°
2026-04-23 06:18 -4.66965 119.38444 9625 ft 307 kts 87°
2026-04-23 06:19 -4.66864 119.40571 9320 ft 304 kts 87°
2026-04-23 06:19 -4.66765 119.42647 9191 ft 290 kts 87°
2026-04-23 06:19 -4.66671 119.44614 8963 ft 276 kts 87°
2026-04-23 06:19 -4.66579 119.46524 8464 ft 272 kts 87°
2026-04-23 06:20 -4.66488 119.48406 8161 ft 269 kts 87°
2026-04-23 06:20 -4.66398 119.50274 7893 ft 271 kts 87°
2026-04-23 06:20 -4.66307 119.52156 7623 ft 269 kts 87°
2026-04-23 06:20 -4.66256 119.54019 7347 ft 266 kts 95°
2026-04-23 06:21 -4.66735 119.55799 7085 ft 266 kts 116°
2026-04-23 06:21 -4.67798 119.57318 6823 ft 267 kts 128°
2026-04-23 06:21 -4.68969 119.58774 6541 ft 267 kts 128°
2026-04-23 06:21 -4.70124 119.60222 6269 ft 264 kts 127°
2026-04-23 06:22 -4.71257 119.61652 6052 ft 258 kts 128°
2026-04-23 06:22 -4.72608 119.62821 6005 ft 263 kts 150°
2026-04-23 06:22 -4.74383 119.63357 5919 ft 270 kts 171°
2026-04-23 06:22 -4.76197 119.63590 5692 ft 264 kts 170°
2026-04-23 06:23 -4.78022 119.63829 5233 ft 262 kts 170°
2026-04-23 06:23 -4.79825 119.64072 4761 ft 261 kts 170°
2026-04-23 06:23 -4.81611 119.64322 4264 ft 259 kts 170°
2026-04-23 06:23 -4.83391 119.64568 3850 ft 255 kts 171°
2026-04-23 06:24 -4.85160 119.64809 3502 ft 259 kts 171°
2026-04-23 06:24 -4.86930 119.65052 3268 ft 251 kts 171°
2026-04-23 06:24 -4.88605 119.65260 3201 ft 233 kts 176°
2026-04-23 06:24 -4.90154 119.65116 3119 ft 216 kts 194°
2026-04-23 06:25 -4.91479 119.64612 3073 ft 196 kts 205°
2026-04-23 06:25 -4.92637 119.64001 2967 ft 181 kts 209°
2026-04-23 06:25 -4.93691 119.63391 2861 ft 168 kts 210°
2026-04-23 06:25 -4.94664 119.62829 2695 ft 153 kts 210°
2026-04-23 06:26 -4.95549 119.62317 2501 ft 140 kts 210°
2026-04-23 06:26 -4.96396 119.61827 2332 ft 142 kts 210°
2026-04-23 06:26 -4.97244 119.61337 2151 ft 140 kts 210°
2026-04-23 06:26 -4.98086 119.60850 1969 ft 139 kts 210°
2026-04-23 06:27 -4.98924 119.60365 1794 ft 139 kts 210°
2026-04-23 06:27 -4.99747 119.59890 1628 ft 138 kts 211°
2026-04-23 06:27 -5.00583 119.59405 1450 ft 139 kts 211°
2026-04-23 06:27 -5.01416 119.58924 1278 ft 138 kts 212°
2026-04-23 06:28 -5.02246 119.58444 1104 ft 138 kts 212°
2026-04-23 06:28 -5.03073 119.57966 923 ft 137 kts 213°
2026-04-23 06:28 -5.03905 119.57477 722 ft 139 kts 213°
2026-04-23 06:28 -5.04737 119.56999 563 ft 137 kts 213°
2026-04-23 06:29 -5.05571 119.56515 351 ft 140 kts 213°
2026-04-23 06:29 -5.06414 119.56026 177 ft 140 kts 213°
2026-04-23 06:29 -5.06977 119.55706 58 ft 139 kts 213°
2026-04-23 06:29 -5.07938 119.55147 39 ft 86 kts 209°
2026-04-23 06:30 -5.08285 119.54949 39 ft 31 kts 210°
2026-04-23 06:30 -5.08443 119.54856 40 ft 25 kts 217°
2026-04-23 06:30 -5.08528 119.54764 40 ft 5 kts 234°
2026-04-23 06:30 -5.08546 119.54739 40 ft 8 kts 234°
2026-04-23 06:31 -5.08579 119.54683 41 ft 11 kts 242°
2026-04-23 06:31 -5.08601 119.54580 41 ft 13 kts 294°
2026-04-23 06:31 -5.08553 119.54497 41 ft 15 kts 300°
2026-04-23 06:31 -5.08501 119.54415 41 ft 13 kts 323°
2026-04-23 06:32 -5.08415 119.54438 41 ft 14 kts 30°
2026-04-23 06:32 -5.08352 119.54474 41 ft 16 kts 30°
2026-04-23 06:32 -5.08246 119.54536 41 ft 19 kts 32°
2026-04-23 06:32 -5.08136 119.54600 41 ft 18 kts 31°
2026-04-23 06:33 -5.08060 119.54639 39 ft 6 kts 354°
2026-04-23 06:33 -5.08042 119.54612 41 ft 5 kts 299°
2026-04-23 06:33 -5.08036 119.54601 41 ft 0 kts 299°